Glasgow, United Kingdom

8:10 AM GMT on February 20, 2018 (GMT +0000)
Glasgow

Weather History for EGPF - March, 2013

Change the Weather History Date:

Thursday, March 21, 2013

  Actual Average Record
Temperature  
Mean Temperature 34 °F -  
Max Temperature 41 °F 50 °F 55 °F (1999)
Min Temperature 28 °F 37 °F 23 °F (2007)
Degree Days  
Heating Degree Days 30    
Moisture  
Dew Point 26 °F    
Average Humidity 72    
Maximum Humidity 93    
Minimum Humidity 53    
Precipitation  
Precipitation 0.00 in - - ()
Sea Level Pressure  
Sea Level Pressure 30.04 in    
Wind  
Wind Speed 12 mph ()    
Max Wind Speed 23 mph    
Max Gust Speed 33 mph    
Visibility 6.2 miles    
Events      
Averages and records for this station are not official NWS values.
T = Trace of Precipitation, MM = Missing Value Source: Averaged Metar Reports

Daily Weather History Graph

Daily Weather History Graph

Search for Another Location

Airport or City:

Trip Planner

Search our weather history database for the weather conditions in past years. The results will help you decide how hot, cold, wet, or windy it might be!

Date:

Astronomy

Mar. 21, 2013 Rise Set
Actual Time 6:17 AM GMT 6:33 PM GMT
Civil Twilight 5:40 AM GMT 7:10 PM GMT
Nautical Twilight 4:56 AM GMT 7:55 PM GMT
Astronomical Twilight 4:09 AM GMT 8:42 PM GMT
Moon 11:56 AM GMT (3/21) 3:24 AM GMT (3/21)
Length of Visible Light 13h 30m
Length of Day
12h 16m
Waxing Gibbous, 67% of the Moon is Illuminated
Mar 21
Waxing Gibbous
Mar 27
Full
Apr 3
Last Quarter
Apr 10
New
Apr 18
First Quarter

Hourly Weather History & Observations

Time (GMT) Temp. Windchill Dew Point Humidity Pressure Visibility Wind Dir Wind Speed Gust Speed Precip Events Conditions
12:20 AM 32.0 °F 23.0 °F 26.6 °F 80% 30.04 in - ENE 11.5 mph - N/A   Clear
12:50 AM 32.0 °F 23.6 °F 26.6 °F 80% 30.04 in - ENE 10.4 mph - N/A   Clear
1:20 AM 30.2 °F 24.3 °F 24.8 °F 80% 30.06 in - ENE 5.8 mph - N/A   Clear
1:50 AM 28.4 °F 23.3 °F 24.8 °F 86% 30.06 in 6.2 mi ENE 4.6 mph - N/A   Unknown
2:20 AM 30.2 °F 26.7 °F 26.6 °F 86% 30.06 in 6.2 mi East 3.5 mph - N/A   Unknown
2:50 AM 28.4 °F 22.2 °F 24.8 °F 86% 30.06 in 6.2 mi ESE 5.8 mph - N/A   Unknown
3:20 AM 28.4 °F 22.2 °F 24.8 °F 86% 30.06 in - East 5.8 mph - N/A   Clear
3:50 AM 28.4 °F 21.2 °F 26.6 °F 93% 30.06 in - East 6.9 mph - N/A   Clear
4:20 AM 28.4 °F 21.2 °F 26.6 °F 93% 30.06 in 6.2 mi East 6.9 mph - N/A   Unknown
4:50 AM 28.4 °F 22.2 °F 26.6 °F 93% 30.06 in - East 5.8 mph - N/A   Clear
5:20 AM 28.4 °F 22.2 °F 24.8 °F 86% 30.06 in - East 5.8 mph - N/A   Clear
5:50 AM 28.4 °F 21.2 °F 26.6 °F 93% 30.06 in - East 6.9 mph - N/A   Clear
6:20 AM 28.4 °F 19.7 °F 26.6 °F 93% 30.06 in 6.2 mi East 9.2 mph - N/A   Scattered Clouds
6:50 AM 30.2 °F 22.6 °F 26.6 °F 86% 30.06 in 6.2 mi East 8.1 mph - N/A   Scattered Clouds
7:20 AM 30.2 °F 22.6 °F 26.6 °F 86% 30.06 in - East 8.1 mph - N/A   Clear
7:50 AM 30.2 °F 22.6 °F 26.6 °F 86% 30.09 in 6.2 mi East 8.1 mph - N/A   Partly Cloudy
8:20 AM 32.0 °F 23.0 °F 28.4 °F 87% 30.09 in 6.2 mi East 11.5 mph 23.0 mph N/A   Partly Cloudy
8:50 AM 33.8 °F 25.8 °F 28.4 °F 81% 30.09 in 6.2 mi East 10.4 mph - N/A   Partly Cloudy
9:20 AM 35.6 °F 27.5 °F 28.4 °F 75% 30.09 in 6.2 mi East 11.5 mph - N/A   Partly Cloudy
9:50 AM 35.6 °F 26.6 °F 28.4 °F 75% 30.09 in 6.2 mi East 13.8 mph - N/A   Scattered Clouds
10:20 AM 37.4 °F 28.2 °F 28.4 °F 70% 30.06 in 6.2 mi ESE 16.1 mph - N/A   Scattered Clouds
10:50 AM 37.4 °F 28.2 °F 26.6 °F 65% 30.06 in 6.2 mi ESE 16.1 mph - N/A   Scattered Clouds
11:20 AM 39.2 °F 29.6 °F 24.8 °F 56% 30.06 in 6.2 mi East 19.6 mph - N/A   Mostly Cloudy
11:50 AM 39.2 °F 29.8 °F 24.8 °F 56% 30.06 in 6.2 mi East 18.4 mph - N/A   Scattered Clouds
12:20 PM 39.2 °F 28.7 °F 24.8 °F 56% 30.06 in 6.2 mi East 23.0 mph - N/A   Scattered Clouds
12:50 PM 41.0 °F 31.4 °F 24.8 °F 53% 30.06 in 6.2 mi East 21.9 mph - N/A   Scattered Clouds
1:20 PM 41.0 °F 31.4 °F 24.8 °F 53% 30.06 in 6.2 mi ESE 21.9 mph - N/A   Scattered Clouds
1:50 PM 39.2 °F 30.2 °F 24.8 °F 56% 30.06 in 6.2 mi East 17.3 mph - N/A   Mostly Cloudy
2:20 PM 39.2 °F 29.8 °F 24.8 °F 56% 30.04 in 6.2 mi East 18.4 mph - N/A   Mostly Cloudy
2:50 PM 39.2 °F 29.0 °F 24.8 °F 56% 30.04 in 6.2 mi East 21.9 mph - N/A   Mostly Cloudy
3:20 PM 39.2 °F 29.3 °F 24.8 °F 56% 30.01 in 6.2 mi East 20.7 mph - N/A   Mostly Cloudy
3:50 PM 39.2 °F 29.3 °F 24.8 °F 56% 30.04 in 6.2 mi East 20.7 mph - N/A   Mostly Cloudy
4:20 PM 39.2 °F 29.3 °F 24.8 °F 56% 30.04 in 6.2 mi East 20.7 mph - N/A   Mostly Cloudy
4:50 PM 37.4 °F 26.6 °F 24.8 °F 60% 30.01 in 6.2 mi East 21.9 mph - N/A   Mostly Cloudy
5:20 PM 37.4 °F 27.2 °F 24.8 °F 60% 30.01 in 6.2 mi East 19.6 mph - N/A   Mostly Cloudy
5:50 PM 37.4 °F 27.2 °F 24.8 °F 60% 30.01 in 6.2 mi East 19.6 mph - N/A   Mostly Cloudy
6:20 PM 35.6 °F 24.8 °F 24.8 °F 65% 30.01 in 6.2 mi East 19.6 mph - N/A   Mostly Cloudy
6:50 PM 35.6 °F 25.9 °F 24.8 °F 65% 30.04 in 6.2 mi East 16.1 mph - N/A   Mostly Cloudy
7:20 PM 35.6 °F 25.2 °F 24.8 °F 65% 30.01 in 6.2 mi East 18.4 mph - N/A   Mostly Cloudy
7:50 PM 35.6 °F 24.5 °F 24.8 °F 65% 30.01 in 6.2 mi East 20.7 mph - N/A   Mostly Cloudy
8:20 PM 35.6 °F 24.8 °F 24.8 °F 65% 30.01 in 6.2 mi East 19.6 mph - N/A   Mostly Cloudy
8:50 PM 35.6 °F 24.8 °F 26.6 °F 70% 29.98 in 6.2 mi East 19.6 mph - N/A   Mostly Cloudy
9:20 PM 35.6 °F 24.8 °F 26.6 °F 70% 29.98 in 6.2 mi East 19.6 mph - N/A   Mostly Cloudy
9:50 PM 35.6 °F 24.2 °F 26.6 °F 70% 30.01 in 6.2 mi East 21.9 mph 33.4 mph N/A   Mostly Cloudy
10:20 PM 35.6 °F 25.2 °F 26.6 °F 70% 30.01 in 6.2 mi East 18.4 mph - N/A   Mostly Cloudy
10:50 PM 35.6 °F 24.5 °F 28.4 °F 75% 29.98 in 6.2 mi East 20.7 mph - N/A   Mostly Cloudy
11:20 PM 35.6 °F 24.2 °F 26.6 °F 70% 29.98 in 6.2 mi East 21.9 mph - N/A   Mostly Cloudy
11:50 PM 35.6 °F 24.2 °F 26.6 °F 70% 29.98 in 6.2 mi East 21.9 mph - N/A   Mostly Cloudy